TimeCDT,TemperatureF,Dew PointF,Humidity,Sea Level PressureIn,VisibilityMPH,Wind Direction,Wind SpeedMPH,Gust SpeedMPH,PrecipitationIn,Events,Conditions,WindDirDegrees,DateUTC
12:15 AM,76.1,73.0,90,30.05,10.0,Calm,Calm,-,N/A,,Clear,0,2013-06-24 05:15:00
12:35 AM,75.7,73.4,92,30.04,10.0,South,3.5,-,N/A,,Clear,170,2013-06-24 05:35:00
12:55 AM,75.6,73.0,92,30.05,10.0,Calm,Calm,-,N/A,,Clear,0,2013-06-24 05:55:00
1:15 AM,74.8,73.0,94,30.04,10.0,Calm,Calm,-,N/A,,Clear,0,2013-06-24 06:15:00
1:35 AM,74.3,73.0,96,30.04,10.0,Calm,Calm,-,N/A,,Clear,0,2013-06-24 06:35:00
1:55 AM,73.8,72.9,97,30.05,7.0,Calm,Calm,-,N/A,,Clear,0,2013-06-24 06:55:00
2:15 AM,74.1,72.9,96,30.04,10.0,Calm,Calm,-,N/A,,Clear,0,2013-06-24 07:15:00
2:35 AM,73.8,72.5,96,30.04,10.0,Calm,Calm,-,N/A,,Clear,0,2013-06-24 07:35:00
2:55 AM,73.4,72.5,97,30.04,10.0,Calm,Calm,-,N/A,,Clear,0,2013-06-24 07:55:00
3:15 AM,73.4,72.5,97,30.04,10.0,Calm,Calm,-,N/A,,Clear,0,2013-06-24 08:15:00
3:35 AM,73.4,72.5,97,30.04,7.0,Calm,Calm,-,N/A,,Clear,0,2013-06-24 08:35:00
3:55 AM,73.4,72.5,97,30.05,7.0,Calm,Calm,-,N/A,,Clear,0,2013-06-24 08:55:00
4:15 AM,72.5,72.0,98,30.05,5.0,Calm,Calm,-,N/A,,Clear,0,2013-06-24 09:15:00
4:35 AM,72.9,71.8,96,30.05,7.0,Calm,Calm,-,N/A,,Clear,0,2013-06-24 09:35:00
4:55 AM,72.5,71.8,98,30.05,7.0,Calm,Calm,-,N/A,,Clear,0,2013-06-24 09:55:00
5:15 AM,72.3,71.6,98,30.06,7.0,Calm,Calm,-,N/A,,Clear,0,2013-06-24 10:15:00
5:35 AM,72.5,71.6,97,30.06,7.0,Calm,Calm,-,N/A,,Clear,0,2013-06-24 10:35:00
5:55 AM,72.5,71.6,97,30.06,7.0,Calm,Calm,-,N/A,,Clear,0,2013-06-24 10:55:00
6:15 AM,72.5,71.6,97,30.07,7.0,Calm,Calm,-,N/A,,Clear,0,2013-06-24 11:15:00
6:35 AM,73.0,72.0,96,30.07,7.0,Calm,Calm,-,N/A,,Clear,0,2013-06-24 11:35:00
6:55 AM,73.8,72.5,96,30.08,7.0,Calm,Calm,-,N/A,,Clear,0,2013-06-24 11:55:00
7:15 AM,74.8,72.7,93,30.08,7.0,Calm,Calm,-,N/A,,Clear,0,2013-06-24 12:15:00
7:35 AM,76.1,73.2,91,30.09,10.0,Calm,Calm,-,N/A,,Clear,0,2013-06-24 12:35:00
7:55 AM,77.4,73.4,88,30.09,7.0,South,3.5,-,N/A,,Clear,190,2013-06-24 12:55:00
8:15 AM,79.0,74.1,85,30.10,10.0,South,3.5,-,N/A,,Clear,170,2013-06-24 13:15:00
8:35 AM,80.8,74.7,82,30.11,7.0,Calm,Calm,-,N/A,,Clear,0,2013-06-24 13:35:00
8:55 AM,82.2,75.4,80,30.11,10.0,South,4.6,-,N/A,,Clear,180,2013-06-24 13:55:00
9:15 AM,83.3,74.7,75,30.11,10.0,SSW,3.5,-,N/A,,Clear,210,2013-06-24 14:15:00
9:35 AM,84.4,74.5,72,30.11,10.0,South,8.1,-,N/A,,Clear,180,2013-06-24 14:35:00
9:55 AM,85.1,74.5,70,30.10,10.0,SSW,5.8,-,N/A,,Clear,200,2013-06-24 14:55:00
10:15 AM,85.8,74.1,68,30.11,10.0,SSW,6.9,-,N/A,,Scattered Clouds,210,2013-06-24 15:15:00
10:35 AM,87.1,73.8,64,30.10,7.0,SSW,9.2,-,N/A,,Scattered Clouds,210,2013-06-24 15:35:00
10:55 AM,87.6,73.9,64,30.11,7.0,SSW,5.8,-,N/A,,Scattered Clouds,210,2013-06-24 15:55:00
11:15 AM,88.9,73.8,61,30.10,7.0,South,6.9,-,N/A,,Mostly Cloudy,170,2013-06-24 16:15:00
11:35 AM,88.7,71.1,56,30.10,7.0,SW,8.1,-,N/A,,Scattered Clouds,230,2013-06-24 16:35:00
11:55 AM,89.6,72.5,57,30.10,10.0,SSW,5.8,-,N/A,,Scattered Clouds,210,2013-06-24 16:55:00
12:15 PM,90.1,72.1,55,30.09,10.0,South,5.8,-,N/A,,Scattered Clouds,190,2013-06-24 17:15:00
12:35 PM,90.3,71.8,54,30.08,10.0,SSW,8.1,-,N/A,,Scattered Clouds,210,2013-06-24 17:35:00
12:55 PM,89.8,71.4,55,30.08,10.0,WSW,5.8,-,N/A,,Scattered Clouds,240,2013-06-24 17:55:00
1:15 PM,91.2,72.0,53,30.07,10.0,South,4.6,-,N/A,,Scattered Clouds,190,2013-06-24 18:15:00
1:35 PM,91.9,73.0,54,30.06,10.0,South,4.6,-,N/A,,Clear,190,2013-06-24 18:35:00
1:55 PM,88.7,72.0,58,30.06,10.0,South,4.6,-,N/A,,Mostly Cloudy,170,2013-06-24 18:55:00
2:15 PM,89.6,72.7,57,30.05,10.0,Calm,Calm,-,N/A,,Overcast,0,2013-06-24 19:15:00
2:35 PM,89.6,73.2,58,30.04,10.0,Calm,Calm,-,N/A,,Mostly Cloudy,0,2013-06-24 19:35:00
2:55 PM,92.3,73.2,54,30.03,10.0,SSW,6.9,-,N/A,,Scattered Clouds,200,2013-06-24 19:55:00
3:15 PM,92.1,71.4,51,30.03,10.0,SSW,6.9,-,N/A,,Scattered Clouds,210,2013-06-24 20:15:00
3:35 PM,93.7,70.9,47,30.02,10.0,SSW,6.9,-,N/A,,Scattered Clouds,210,2013-06-24 20:35:00
3:55 PM,92.1,69.4,47,30.02,10.0,SSW,3.5,-,N/A,,Clear,210,2013-06-24 20:55:00
4:15 PM,95.0,71.2,46,30.01,10.0,North,3.5,-,N/A,,Scattered Clouds,360,2013-06-24 21:15:00
4:35 PM,92.7,71.8,50,30.02,10.0,South,12.7,17.3,N/A,,Mostly Cloudy,170,2013-06-24 21:35:00
4:55 PM,85.3,72.5,65,30.01,10.0,SW,10.4,18.4,N/A,,Mostly Cloudy,230,2013-06-24 21:55:00
5:15 PM,85.1,72.9,67,30.02,10.0,SSW,9.2,-,N/A,,Mostly Cloudy,210,2013-06-24 22:15:00
5:35 PM,85.6,73.0,66,30.02,10.0,SSW,6.9,-,N/A,Thunderstorm,Scattered Clouds,210,2013-06-24 22:35:00
5:55 PM,86.5,72.7,63,30.02,10.0,SW,5.8,-,N/A,,Scattered Clouds,230,2013-06-24 22:55:00
6:15 PM,84.7,72.9,67,30.01,10.0,SSW,5.8,-,N/A,,Mostly Cloudy,210,2013-06-24 23:15:00
6:35 PM,84.4,73.4,69,30.01,10.0,Calm,Calm,-,N/A,,Scattered Clouds,0,2013-06-24 23:35:00
6:55 PM,84.4,73.6,70,30.01,10.0,South,4.6,-,N/A,,Clear,180,2013-06-24 23:55:00
7:15 PM,84.7,74.1,70,30.02,10.0,SSE,9.2,-,N/A,,Clear,160,2013-06-25 00:15:00
7:35 PM,83.8,73.0,70,30.03,10.0,SSE,6.9,-,N/A,,Clear,160,2013-06-25 00:35:00
7:55 PM,83.3,72.7,70,30.03,10.0,South,6.9,-,N/A,,Scattered Clouds,170,2013-06-25 00:55:00
8:15 PM,82.0,72.7,73,30.03,10.0,SSE,6.9,-,N/A,,Scattered Clouds,150,2013-06-25 01:15:00
8:35 PM,81.3,72.5,74,30.02,10.0,SSW,6.9,-,N/A,,Clear,210,2013-06-25 01:35:00
8:55 PM,80.4,72.3,76,30.02,10.0,South,5.8,-,N/A,,Clear,190,2013-06-25 01:55:00
9:15 PM,79.5,72.5,79,30.01,10.0,SSW,5.8,-,N/A,,Clear,200,2013-06-25 02:15:00
9:35 PM,78.8,72.7,81,30.01,10.0,South,5.8,-,N/A,,Clear,180,2013-06-25 02:35:00
9:55 PM,77.7,72.7,84,30.02,10.0,South,3.5,-,N/A,,Clear,180,2013-06-25 02:55:00
10:15 PM,77.9,72.5,83,30.02,10.0,SSW,3.5,-,N/A,,Clear,200,2013-06-25 03:15:00
10:35 PM,77.0,72.5,86,30.03,10.0,SSE,3.5,-,N/A,,Clear,150,2013-06-25 03:35:00
10:55 PM,76.3,72.5,88,30.04,10.0,SSE,3.5,-,N/A,,Clear,150,2013-06-25 03:55:00
11:15 PM,77.0,72.7,86,30.06,10.0,ESE,5.8,-,N/A,,Clear,120,2013-06-25 04:15:00
11:35 PM,76.6,73.0,89,30.06,4.0,SE,5.8,-,N/A,,Clear,130,2013-06-25 04:35:00
11:55 PM,76.1,72.9,90,30.06,10.0,SSE,5.8,-,N/A,,Clear,160,2013-06-25 04:55:00